When you browse on this site, cookies collect data to enhance your experience and personalize the content and advertising you see.
Visit our Privacy Policy to learn more. By continuing to use the site, you agree to this use of cookies and data.
EN

Hourly Weather Nurmuchash

Today, 27 September, Sunday

Time Temperature Precipitation Wind Pressure Humidity
00:00 +9°C° 0 mm 3 mps 759 mmHg 76%
01:00 +9°C° 0 mm 2 mps 759 mmHg 76%
02:00 +9°C° 0 mm 2 mps 760 mmHg 76%
03:00 +9°C° 0 mm 2 mps 760 mmHg 73%
04:00 +9°C° 0 mm 2 mps 760 mmHg 73%
05:00 +9°C° 0 mm 2 mps 760 mmHg 73%
06:00 +8°C° 0 mm 3 mps 760 mmHg 73%
07:00 +10°C° 0 mm 3 mps 760 mmHg 69%
08:00 +11°C° 0 mm 3 mps 761 mmHg 65%
09:00 +12°C° 0 mm 3 mps 761 mmHg 62%
10:00 +13°C° 0 mm 3 mps 761 mmHg 59%
11:00 +14°C° 0 mm 3 mps 761 mmHg 57%
12:00 +16°C° 0 mm 3 mps 761 mmHg 54%
13:00 +16°C° 0 mm 3 mps 761 mmHg 55%
14:00 +16°C° 0 mm 3 mps 761 mmHg 56%
15:00 +17°C° 0 mm 2 mps 761 mmHg 57%
16:00 +15°C° 0 mm 2 mps 761 mmHg 61%
17:00 +14°C° 0 mm 2 mps 761 mmHg 65%
18:00 +12°C° 0 mm 2 mps 761 mmHg 69%
19:00 +12°C° 0 mm 2 mps 761 mmHg 70%
20:00 +10°C° 0 mm 2 mps 761 mmHg 71%
21:00 +10°C° 0 mm 2 mps 761 mmHg 72%
22:00 +10°C° 0 mm 2 mps 761 mmHg 73%
23:00 +9°C° 0 mm 2 mps 761 mmHg 73%

Tomorrow, 28 September, Monday

Time Temperature Precipitation Wind Pressure Humidity
00:00 +9°C° 0 mm 2 mps 762 mmHg 74%
01:00 +9°C° 0 mm 2 mps 762 mmHg 74%
02:00 +8°C° 0 mm 2 mps 762 mmHg 74%
03:00 +9°C° 0 mm 1 mps 762 mmHg 74%
04:00 +9°C° 0 mm 1 mps 762 mmHg 75%
05:00 +8°C° 0 mm 1 mps 762 mmHg 75%
06:00 +8°C° 0 mm 1 mps 762 mmHg 76%
07:00 +9°C° 0 mm 2 mps 762 mmHg 71%
08:00 +10°C° 0 mm 2 mps 762 mmHg 65%
09:00 +13°C° 0 mm 2 mps 762 mmHg 60%
10:00 +14°C° 0 mm 2 mps 762 mmHg 57%
11:00 +15°C° 0 mm 2 mps 762 mmHg 53%
12:00 +16°C° 0 mm 2 mps 762 mmHg 49%
13:00 +16°C° 0 mm 2 mps 762 mmHg 51%
14:00 +17°C° 0 mm 2 mps 762 mmHg 52%
15:00 +17°C° 0 mm 2 mps 762 mmHg 53%
16:00 +15°C° 0 mm 2 mps 762 mmHg 58%
17:00 +14°C° 0 mm 2 mps 762 mmHg 63%
18:00 +12°C° 0 mm 2 mps 762 mmHg 68%
19:00 +10°C° 0 mm 2 mps 762 mmHg 69%
20:00 +10°C° 0 mm 2 mps 762 mmHg 70%
21:00 +9°C° 0 mm 2 mps 762 mmHg 71%
22:00 +9°C° 0 mm 2 mps 762 mmHg 70%
23:00 +9°C° 0 mm 2 mps 762 mmHg 70%

Day after tomorrow, 29 September, Tuesday

Time Temperature Precipitation Wind Pressure Humidity
00:00 +9°C° 0 mm 2 mps 762 mmHg 69%
01:00 +9°C° 0 mm 2 mps 762 mmHg 70%
02:00 +8°C° 0 mm 2 mps 762 mmHg 71%
03:00 +8°C° 0 mm 2 mps 762 mmHg 71%
04:00 +8°C° 0 mm 2 mps 762 mmHg 72%
05:00 +8°C° 0 mm 2 mps 762 mmHg 72%
06:00 +8°C° 0 mm 2 mps 762 mmHg 72%
07:00 +9°C° 0 mm 2 mps 762 mmHg 69%
08:00 +10°C° 0 mm 2 mps 762 mmHg 66%
09:00 +13°C° 0 mm 2 mps 762 mmHg 63%
10:00 +14°C° 0 mm 2 mps 762 mmHg 59%
11:00 +15°C° 0 mm 2 mps 762 mmHg 55%
12:00 +17°C° 0 mm 2 mps 762 mmHg 50%
13:00 +17°C° 0 mm 2 mps 762 mmHg 51%
14:00 +17°C° 0 mm 2 mps 762 mmHg 51%
15:00 +18°C° 0 mm 1 mps 762 mmHg 52%
16:00 +16°C° 0 mm 1 mps 761 mmHg 57%
17:00 +14°C° 0 mm 1 mps 761 mmHg 62%
18:00 +13°C° 0 mm 1 mps 761 mmHg 68%
19:00 +12°C° 0 mm 1 mps 761 mmHg 70%
20:00 +10°C° 0 mm 2 mps 761 mmHg 73%
21:00 +10°C° 0 mm 2 mps 761 mmHg 75%
22:00 +9°C° 0 mm 2 mps 761 mmHg 76%
23:00 +9°C° 0 mm 2 mps 761 mmHg 77%

30 September, Wednesday

Time Temperature Precipitation Wind Pressure Humidity
00:00 +9°C° 0 mm 2 mps 761 mmHg 79%
01:00 +9°C° 0 mm 1 mps 761 mmHg 79%
02:00 +9°C° 0 mm 1 mps 761 mmHg 80%
03:00 +9°C° 0 mm 1 mps 761 mmHg 81%
04:00 +9°C° 0 mm 1 mps 761 mmHg 81%
05:00 +9°C° 0 mm 1 mps 761 mmHg 81%
06:00 +8°C° 0 mm 1 mps 761 mmHg 81%
07:00 +9°C° 0 mm 2 mps 761 mmHg 77%
08:00 +10°C° 0 mm 2 mps 761 mmHg 72%
09:00 +13°C° 0 mm 2 mps 761 mmHg 68%
10:00 +14°C° 0 mm 2 mps 761 mmHg 63%
11:00 +15°C° 0 mm 2 mps 761 mmHg 59%
12:00 +17°C° 0 mm 2 mps 761 mmHg 54%
13:00 +17°C° 0 mm 2 mps 760 mmHg 55%
14:00 +17°C° 0 mm 2 mps 760 mmHg 55%
15:00 +17°C° 0 mm 2 mps 760 mmHg 56%
16:00 +16°C° 0 mm 2 mps 760 mmHg 63%
17:00 +14°C° 0 mm 2 mps 760 mmHg 70%
18:00 +12°C° 0 mm 2 mps 760 mmHg 77%
19:00 +12°C° 0 mm 2 mps 760 mmHg 79%
20:00 +10°C° 0 mm 2 mps 760 mmHg 82%
21:00 +10°C° 0 mm 2 mps 760 mmHg 85%
22:00 +10°C° 0 mm 2 mps 760 mmHg 86%
23:00 +9°C° 0 mm 2 mps 760 mmHg 87%

1 October, Thursday

Time Temperature Precipitation Wind Pressure Humidity
00:00 +9°C° 0 mm 2 mps 760 mmHg 89%
01:00 +9°C° 0 mm 2 mps 760 mmHg 89%
02:00 +9°C° 0 mm 2 mps 760 mmHg 89%
03:00 +8°C° 0 mm 2 mps 760 mmHg 89%
04:00 +8°C° 0 mm 2 mps 760 mmHg 89%
05:00 +8°C° 0 mm 2 mps 760 mmHg 89%
06:00 +8°C° 0 mm 2 mps 760 mmHg 89%
07:00 +10°C° 0 mm 2 mps 760 mmHg 84%
08:00 +12°C° 0 mm 2 mps 760 mmHg 78%
09:00 +14°C° 0 mm 2 mps 760 mmHg 73%
10:00 +15°C° 0 mm 2 mps 760 mmHg 68%
11:00 +16°C° 0 mm 2 mps 760 mmHg 64%
12:00 +18°C° 0 mm 2 mps 760 mmHg 59%
13:00 +18°C° 0 mm 2 mps 760 mmHg 59%
14:00 +18°C° 0 mm 2 mps 759 mmHg 58%
15:00 +18°C° 0 mm 2 mps 759 mmHg 58%
16:00 +17°C° 0 mm 2 mps 759 mmHg 65%
17:00 +15°C° 0 mm 2 mps 759 mmHg 71%
18:00 +13°C° 0 mm 2 mps 759 mmHg 78%
19:00 +13°C° 0 mm 2 mps 759 mmHg 80%
20:00 +12°C° 0 mm 2 mps 759 mmHg 82%
21:00 +12°C° 0 mm 2 mps 759 mmHg 85%
22:00 +11°C° 0 mm 1 mps 759 mmHg 86%
23:00 +11°C° 0 mm 1 mps 759 mmHg 87%

2 October, Friday

Time Temperature Precipitation Wind Pressure Humidity
00:00 +11°C° 0 mm 1 mps 759 mmHg 88%
01:00 +10°C° 0 mm 1 mps 759 mmHg 88%
02:00 +10°C° 0 mm 1 mps 759 mmHg 88%
03:00 +10°C° 0 mm 1 mps 759 mmHg 88%
04:00 +10°C° 0 mm 1 mps 759 mmHg 88%
05:00 +9°C° 0 mm 1 mps 759 mmHg 88%
06:00 +9°C° 0 mm 1 mps 759 mmHg 88%
07:00 +11°C° 0 mm 1 mps 759 mmHg 82%
08:00 +12°C° 0 mm 1 mps 759 mmHg 77%
09:00 +14°C° 0 mm 1 mps 759 mmHg 72%
10:00 +15°C° 0 mm 1 mps 759 mmHg 67%
11:00 +16°C° 0 mm 1 mps 759 mmHg 63%
12:00 +18°C° 0 mm 1 mps 758 mmHg 58%
13:00 +19°C° 0 mm 1 mps 758 mmHg 57%
14:00 +19°C° 0 mm 1 mps 758 mmHg 56%
15:00 +19°C° 0 mm 1 mps 758 mmHg 55%
16:00 +16°C° 0 mm 1 mps 758 mmHg 62%
17:00 +15°C° 0 mm 1 mps 758 mmHg 68%
18:00 +13°C° 0 mm 1 mps 758 mmHg 74%
19:00 +12°C° 0 mm 1 mps 758 mmHg 77%
20:00 +12°C° 0 mm 1 mps 758 mmHg 79%
21:00 +11°C° 0 mm 1 mps 758 mmHg 82%
22:00 +11°C° 0 mm 1 mps 758 mmHg 83%
23:00 +11°C° 0 mm 1 mps 758 mmHg 84%
Show more